#timestamp,LO_Frequency,Hit 
1504612815.9,286046997.4,N
1504612835.7,286046996.7,N
1504612855.5,286046997.8,N
1504612875.4,286046996.9,N
1504612895.2,286046999.3,N
1504612915.0,286047000.8,N
1504612915.9,286047000.8,N
1504612935.8,286047002.6,N
1504612955.6,286047003.3,N
1504612975.4,286047001.7,N
1504612995.3,286047003.9,N
1504613015.1,286047003.1,N
1504613016.0,286047003.1,N
1504613035.8,286047001.7,N
1504613055.7,286047000.7,N
1504613075.5,286047000.7,N
1504613095.3,286046998.7,N
1504613115.2,286047000.8,N
1504613135.9,286046997.0,N
1504613155.7,286046996.7,N
1504613175.6,286046995.6,N
1504613195.4,286046997.1,N
1504613215.2,286046998.2,N
1504613235.0,286047002.7,N
1504613235.9,286047002.7,N
1504613255.8,286047005.4,N
1504613275.6,286047003.1,N
1504613295.4,286047002.4,N
1504613315.3,286047005.5,N
1504613335.1,286047005.3,N
1504613355.8,286047003.0,N
1504613375.7,286047006.0,N
1504613395.5,286047003.6,N
1504613415.3,286047004.6,N
1504613435.2,286047009.2,P
1504613455.9,286047009.4,N
1504613475.7,286047010.8,N
1504613495.6,286047004.6,N
1504613515.4,286047001.4,N
1504613535.2,286047002.8,N
1504613555.1,286047000.8,N
1504613556.0,286047000.8,N
1504613575.8,286046998.2,N
1504613595.6,286047002.4,N
1504613615.5,286047000.0,N
1504613635.3,286047002.6,N
1504613655.1,286046996.5,N
1504613675.8,286046996.4,N
1504613695.7,286046993.5,N
1504613715.5,286046990.9,N
1504613735.3,286046991.7,N
1504613755.2,286046990.8,N
1504613775.9,286046987.6,N
1504613795.7,286046991.6,N
1504613815.6,286046991.1,N
1504613835.4,286046988.9,N
1504613855.2,286046993.6,N
1504613875.1,286046996.3,N
1504613876.0,286046996.3,N
1504613895.8,286046994.9,N
1504613915.6,286046995.2,N
1504613935.5,286046998.5,N
1504613955.3,286047000.4,N
1504613975.1,286047001.4,N
1504613995.9,286047002.4,N
1504614015.7,286047000.1,N
1504614035.5,286046999.0,N
1504614055.3,286047002.7,N
1504614075.2,286047004.0,N
1504614095.0,286047002.3,N
1504614095.9,286047002.3,N
1504614115.7,286047004.4,N
1504614135.6,286047004.2,N
1504614155.4,286047004.3,N
1504614175.2,286047007.0,N
1504614195.1,286047003.3,N
1504614196.0,286047003.3,N
1504614215.8,286047003.7,N
1504614235.6,286047005.1,N
1504614255.5,286047005.4,N
1504614275.3,286047003.0,N
1504614295.1,286047007.3,N
1504614315.9,286047007.4,N
1504614335.7,286047005.6,N
1504614355.5,286047008.9,N
1504614375.4,286047004.5,N
1504614395.2,286047006.5,N
1504614415.0,286047005.3,N
1504614415.9,286047005.3,N
1504614435.8,286047002.6,N
1504614455.6,286047000.5,N
1504614475.4,286046996.9,N
1504614495.2,286046993.3,N
1504614515.1,286046996.4,N
1504614516.0,286046996.4,N
1504614535.2,286046993.4,N
1504614555.0,286046994.1,N
1504614555.9,286046994.1,N
1504614575.7,286046994.8,N
1504614595.6,286046992.1,N
1504614615.4,286046996.0,N
1504614635.2,286046995.7,N
1504614655.1,286046995.8,N
1504614656.0,286046995.8,N
1504614675.8,286046995.6,N
1504614695.6,286046995.7,N
1504614715.5,286047000.6,N
1504614735.3,286047004.2,N
1504614755.1,286046999.9,N
1504614775.9,286047001.6,N
1504614795.7,286046997.3,N
1504614815.5,286046998.3,N
1504614835.4,286046999.3,N
1504614855.2,286046995.3,N
1504614875.0,286046995.6,N
1504614875.9,286046995.6,N
1504614895.8,286046988.6,N
1504614915.6,286046987.5,P
1504614935.4,286046992.7,N
1504614955.3,286046988.8,N
1504614975.1,286046989.1,N
1504614995.8,286046996.3,P
1504615015.7,286046996.4,N
1504615035.5,286047001.2,N
1504615055.3,286047004.2,N
1504615075.2,286047005.5,N
1504615095.9,286047005.4,N
1504615115.7,286047002.9,N
1504615135.6,286047007.5,N
1504615155.4,286047009.0,N
1504615175.2,286047005.0,N
1504615195.0,286047009.0,N
1504615196.0,286047009.0,N
1504615215.8,286047007.9,N
1504615235.6,286047010.8,N
1504615255.4,286047006.7,N
1504615275.3,286047003.9,N
1504615295.1,286047002.4,N
1504615315.8,286046997.5,N
1504615335.7,286046995.8,N
1504615355.5,286046996.4,N
1504615375.3,286046996.1,N
1504615395.2,286046999.4,N
1504615415.9,286046997.2,N
1504615435.7,286046998.4,N
1504615455.6,286047001.4,N
1504615475.4,286047002.8,N
1504615495.2,286047001.5,N
1504615515.1,286047001.3,N
1504615516.0,286047001.3,N
1504615535.8,286047006.6,N
1504615555.6,286047012.3,N
1504615575.5,286047007.7,N
1504615595.3,286047006.3,N
1504615615.1,286047007.8,N
1504615635.9,286047014.7,P
1504615655.7,286047012.2,N
1504615675.5,286047008.5,N
1504615695.4,286047010.0,N
1504615715.2,286047012.1,P
1504615735.0,286046997.8,N
1504615735.9,286046997.8,N
1504615755.8,286046998.9,N
1504615775.6,286046998.3,N
1504615795.4,286046998.4,N
1504615815.3,286046997.2,N
1504615835.1,286046997.1,N
1504615855.8,286046997.8,N
1504615875.7,286046999.5,N
1504615895.5,286046996.7,N
1504615915.3,286047000.6,N
1504615935.2,286047000.4,N
1504615955.9,286046998.6,N
1504615975.7,286046998.9,N
1504615995.6,286046999.2,N
1504616015.4,286046999.6,N
1504616035.2,286046998.9,N
1504616055.0,286046993.8,N
1504616056.0,286046993.8,N
1504616075.8,286046994.2,N
1504616095.6,286046991.9,N
1504616115.4,286046992.1,N
1504616135.3,286046994.3,N
1504616155.1,286046997.6,N
1504616175.8,286046994.6,N
1504616195.7,286046992.5,N
1504616215.5,286046993.9,N
1504616235.3,286046993.6,N
1504616255.2,286046997.3,N
1504616275.9,286046997.8,N
1504616295.7,286046997.1,N
1504616315.6,286046996.7,N
1504616335.4,286046998.5,N
1504616355.2,286046998.9,N
1504616375.1,286047001.0,N
1504616376.0,286047001.0,N
1504616395.8,286046999.6,N
